CBERS 1 DEB, 32079

Orbit data source: Space-Track

CBERS 1 DEB, 32079 is space debris in SSO originally from a launch on Thu, 14 Oct 1999 UTC launched from the Taiyaun Space Center, China (TSC). Debris objects in space refer to the collection of defunct objects orbiting the Earth. Examples of debris include non-operational satellites, rocket bodies, and fragments generated from explosions, collisions, or faulty payload assembly.

Loading next visibility...
Identifier
32079, 1999-057QT
Orbit
SSO
Country
Flag of CNCN / CHBZ
Flag of BRBR / CHBZ
Related business
Manufacturer
Unknown
Mission
Spacecraft
Bus & Motor
Unknown
Mass
Unknown
Launch date (UTC)
1999-10-14 (26 years ago)
Launch vehicle
Unknown
Launch site
Taiyaun Space Center, China (TSC)
Object type
Payload
Rocket body
Debris
Shape & HBR
Unknown shape, 0.1 m
Radar Cross Section
Small (<0.1 m²)

Expand to show TLE details & history
Last TLE update: 21 hours ago

TLE from 21 hours ago
0 CBERS 1 DEB
1 32079U 99057QT  26093.34110041  .00001683  00000-0  49389-3 0  9999
2 32079  98.7500 121.5250 0006503 116.2865 243.8994 14.45166302986645
Epoch: 2026-04-03T08:11Z
TLE epoch observation values (Epoch: 2026-04-03T08:11:11.075Z)
Latitude
-0.00002°
Longitude
167.05224°
Altitude
746.467 km
Speed
7.48 km/s
True Right ascension
08h 06m 06s
True Declination
0° 00' 00"
Sunlit
Object was in daylight at epoch
Visualization orbit readout
Latitude
Unknown
Longitude
Unknown
Altitude
Unknown
Speed
Unknown
Apparent Right ascension
Unknown
Apparent Declination
Unknown
Sunlit
N/A
Visualization observer readout
Local Sidereal Time
11:26:32
Azimuth
Unknown
Elevation
Unknown
Doppler factor
Unknown
Orbital elements
Apogee altitude
743.235 km
Perigee altitude
733.979 km
Semi-major axis
7,116.744 km
Eccentricity
0.00065
Inclination
98.75°
RAAN
121.525°
Arg. of periapsis
116.2865°
True anomaly
243.8325°
Mean anomaly
243.8994°
Eccentric anomaly
243.86595°
Mean motion
3.61511 °/min
Orbital period
99.58 mins
BSTAR
0.00049389
Loading maneuver chart data...
Computing Atmospheric mass density...
Loading historical data...
Loading historical data...
Loading historical data...
Loading historical data...
Loading historical data...
Loading historical data...
Loading historical data...

Documentation

Showing up to 5 results
|